Vertical_Velocity
-1 -4 -3 -2 -3 -2 0 -1 -0 -2 1 -1 1 1 -2 -4 -4 -2 -2 -2 1 1 -0 -2 -1 -0 -1 -2 5 2 2 2 0 2 1 2 1 -3 -0 2 2 2 -4 2 1 -4 5
-3 -0 -3 -3 -4 -1 -2 -1 -2 -2 -1 1 1 -1 -4 -2 -1 -1 -3 -4 -3 -1 0 1 1 -3 -2 -1 -4 -2 -0 1 1 0 1 3 5 0 2 -1 1 -0 -2 3 -3 -4 5
-1 0 -3 -3 0 -2 -2 -3 -6 -3 -2 -4 -2 1 0 4 2 -0 -0 0 -2 -2 -2 1 -0 -3 -5 -2 -4 -1 -1 -1 -0 -2 -0 -1 -1 -3 0 -3 2 -1 4 7 -1 -4 -11
-1 -1 -1 -1 -3 -4 -2 -2 -3 -3 -4 -4 -5 -5 -6 -0 0 -2 -1 1 1 -1 -2 -1 2 -0 -3 1 -1 1 -1 -2 -1 -2 -2 1 0 -1 -1 -2 -2 -3 1 8 -0 -3 -22
1 -1 -3 -3 -3 -1 -2 -0 0 0 -1 0 0 -2 -1 -3 -0 0 -1 -1 0 0 -1 -1 1 -2 -4 2 1 -1 2 1 1 1 -1 -1 2 1 -1 -1 -2 -1 -4 1 12 -5 -14
-2 -3 -1 0 1 -0 -2 3 -1 -1 -4 -1 -3 3 -2 -1 -3 -4 -1 1 -2 -3 -4 1 2 -2 3 -2 -0 0 -0 2 3 -0 -0 0 2 4 -6 -4 2 -5 -5 -1 9 -4 -9
-1 1 0 -2 -2 -4 0 -0 1 -2 -3 -6 -4 -5 -1 -3 -2 -4 -4 5 -1 9 3 -3 -4 3 3 -5 -3 -2 1 0 4 2 2 3 9 -8 2 -1 -2 1 -4 1 6 -4 -20
1 1 -2 -3 -4 -0 1 -1 -0 -5 0 0 -0 -2 -2 -1 -2 -9 -7 -5 -6 -5 25 -13 3 0 4 1 -1 -3 -1 1 -1 3 2 4 13 -8 -4 -0 2 -3 -6 16 16 -1 -25
2 -1 1 -3 -2 -2 -2 -1 -2 -1 -2 -4 -4 -1 -4 -3 -6 -6 -4 -4 -7 -6 -5 10 3 3 5 1 3 -1 4 2 1 3 -1 7 -6 0 -2 0 -3 -1 1 -1 -7 1 7
-0 3 -1 -3 -2 -3 -0 -1 -3 -4 -3 -3 -1 -2 -7 -7 -2 -5 -5 -5 -4 -9 -13 0 7 -1 -1 5 3 5 2 4 5 2 -2 11 -9 2 -2 8 -15 3 -21 1 2 -10 2
-1 -1 -0 0 2 -4 -6 -0 -4 -3 -1 -2 -0 -4 -3 -3 -2 -6 -4 -7 -5 -5 -15 -12 -4 -0 2 4 4 2 4 3 6 -2 1 15 3 4 4 1 -6 5 3 -3 -0 0 -16
-4 -4 -0 -2 -1 -1 -2 -5 -4 -2 -1 -1 -1 0 -3 -4 -4 -6 -5 -5 -2 -7 -2 1 3 1 0 5 6 9 4 4 2 2 3 6 0 4 5 -2 -0 -1 -3 -2 -2 -2 -17
-0 -2 -1 1 1 -0 -1 -3 -3 -3 -3 -5 0 -4 -3 -4 -5 -5 -2 -6 -8 1 -1 2 1 2 3 4 6 7 8 5 1 -3 4 0 -2 2 1 2 -1 -6 -7 -4 -7 -6 2
-2 -2 -4 -2 -1 2 1 -1 0 -2 -1 -1 -2 -3 -4 -2 -4 -3 -1 -6 -5 1 4 11 -4 7 2 4 8 3 5 8 1 -2 4 -1 8 4 5 4 -2 3 -1 3 -21 -2 8
-2 -3 -2 1 1 -3 -2 -1 1 -0 -2 -2 -1 -1 3 0 -3 -5 -7 -7 -2 -6 -5 2 10 2 6 9 1 0 4 7 7 -1 3 -6 6 -1 3 6 -8 5 6 3 -17 4 -16
-0 -2 -0 -2 -1 1 -2 -2 -2 -2 -2 -4 -3 -3 0 -1 -1 -4 -5 1 -2 -3 1 6 -2 4 1 4 3 -1 4 11 5 5 1 0 -11 7 8 3 -7 -5 3 6 0 -12 -12
-1 -1 -2 -2 -1 -1 -1 -2 2 -1 0 -0 -3 -5 -0 -0 -3 -1 -2 1 4 -7 -0 2 4 -0 1 0 3 0 -1 4 5 6 5 0 -2 1 4 8 7 -4 0 -3 1 0 -11
-2 -1 0 -5 -1 -2 -1 -2 -4 -3 -4 -4 -2 -3 -3 -4 -0 0 -1 -10 -5 4 3 -1 2 1 1 2 -1 -1 -2 5 5 4 5 8 -4 -1 4 5 4 -1 -2 2 -1 5 -1
-3 0 -3 -2 -2 -1 -2 -1 0 -2 -2 -1 -6 2 -1 -4 -9 -1 -1 1 -12 -1 3 -0 -0 2 -2 1 -10 -0 1 5 0 6 0 6 -5 -4 5 5 -0 -0 2 1 -8 -5 7
-0 -1 -3 -0 -3 -0 -1 -2 -5 -4 1 -2 -1 -11 -6 3 1 -5 -11 4 -3 -3 4 1 -3 -3 -4 4 5 -4 -4 -2 2 2 -1 3 -4 1 -0 2 -5 4 7 -4 -8 -2 -2
-1 -1 -2 -1 -2 -3 -3 -0 -3 -3 -0 -0 -5 -2 5 -5 2 -5 -1 -2 4 -6 4 3 6 1 -2 -5 4 0 2 1 7 6 2 -4 -10 -4 3 4 -3 -3 10 2 -4 -3 -16
-1 -3 -2 -1 -0 -2 -1 -1 -5 1 0 1 -8 -8 -1 2 -0 4 1 2 -3 1 -5 5 1 2 7 -3 -10 0 -7 4 -1 9 -4 2 -8 -1 3 8 -1 -7 8 -1 -1 4 -10
-2 -3 -1 -0 -1 -2 -1 2 -2 -4 2 2 -4 -1 5 -4 -1 -1 2 -2 0 -7 8 -0 -1 -1 3 1 0 2 1 3 -4 0 3 -3 -2 -1 -1 7 -1 -0 8 -0 -2 -3 2
-2 -2 -1 -1 1 -2 0 1 1 -2 -0 4 1 -1 -2 3 -4 -5 -2 4 7 -0 -0 3 1 -2 4 1 2 3 3 1 -0 3 -1 4 -0 -3 -5 3 -2 4 5 1 -3 -2 1
-1 -4 -2 -2 -1 -3 -3 -2 -4 -2 -3 -0 3 -1 -4 -3 -2 -1 -1 -0 6 7 -5 -7 -3 -3 -2 3 -2 3 8 4 1 1 -1 -0 1 -1 -4 1 7 2 5 1 -2 5 -1
-1 -3 -1 -1 0 -1 -1 0 -4 -3 -2 -1 -2 2 1 6 -14 -5 1 -1 -1 -1 11 7 2 0 -3 -2 0 -3 -1 2 5 5 2 0 3 0 3 0 2 3 2 0 1 3 0
-1 -2 -2 -1 -0 -0 -1 -3 -4 -8 -7 -7 -6 -2 -2 -9 1 -7 -3 -5 -3 -6 -2 -3 5 8 3 -0 2 1 4 -4 -0 3 2 0 3 1 2 1 1 4 1 0 2 -2 -3
-1 -3 -1 -1 -2 -1 -1 -2 -2 -3 -2 -1 -5 -5 4 0 -5 -4 -5 0 2 -2 -4 -4 -7 2 4 0 -0 1 1 3 1 2 3 -0 1 2 4 4 3 5 1 -0 2 -1 1
-1 -1 -1 -1 -1 -1 -1 -1 -1 -5 1 -4 -4 -1 -1 5 -7 -7 -9 -1 2 -5 -4 3 -3 -4 -4 -6 -2 -3 -0 -0 1 1 2 2 1 -0 2 5 4 2 0 0 -0 1 1
Height
5811 5809 5805 5800 5796 5792 5787 5784 5780 5777 5774 5770 5768 5765 5762 5758 5754 5750 5746 5742 5738 5735 5731 5727 5723 5720 5717 5715 5712 5709 5706 5705 5704 5704 5704 5703 5701 5700 5700 5701 5701 5701 5700 5701 5701 5702 5706
5811 5808 5804 5801 5796 5792 5788 5784 5781 5777 5773 5769 5765 5762 5758 5754 5750 5745 5741 5737 5733 5730 5724 5719 5714 5712 5709 5706 5703 5700 5698 5696 5694 5694 5693 5692 5691 5690 5690 5690 5691 5690 5690 5690 5688 5688 5692
5811 5807 5803 5800 5796 5793 5788 5783 5779 5774 5769 5766 5762 5757 5753 5749 5745 5741 5736 5730 5725 5720 5716 5711 5708 5704 5700 5698 5694 5691 5689 5687 5685 5684 5682 5682 5681 5681 5680 5680 5681 5681 5682 5680 5679 5677 5677
5810 5807 5804 5800 5795 5791 5786 5781 5775 5771 5767 5763 5759 5753 5748 5743 5737 5732 5727 5723 5718 5713 5708 5704 5699 5695 5692 5689 5686 5684 5682 5679 5676 5674 5673 5672 5672 5672 5672 5672 5673 5673 5675 5673 5670 5668 5668
5810 5807 5803 5799 5793 5788 5782 5778 5772 5767 5762 5757 5753 5748 5742 5737 5732 5726 5721 5715 5710 5705 5700 5696 5692 5687 5684 5681 5678 5674 5672 5670 5668 5665 5664 5663 5664 5665 5665 5664 5664 5664 5665 5664 5663 5660 5659
5809 5805 5800 5795 5791 5785 5780 5775 5770 5766 5762 5756 5749 5743 5737 5731 5727 5721 5715 5709 5702 5698 5694 5688 5683 5680 5676 5672 5668 5665 5662 5660 5658 5656 5656 5655 5655 5656 5654 5653 5655 5655 5655 5654 5652 5648 5647
5808 5803 5799 5795 5789 5783 5776 5771 5766 5761 5756 5751 5746 5739 5733 5728 5721 5716 5712 5704 5699 5692 5684 5679 5674 5668 5664 5661 5657 5654 5652 5650 5648 5647 5646 5646 5646 5645 5645 5644 5644 5645 5644 5643 5640 5634 5636
5806 5800 5796 5791 5785 5779 5774 5768 5763 5758 5753 5748 5742 5736 5730 5723 5717 5714 5707 5699 5692 5687 5679 5668 5661 5656 5652 5648 5646 5642 5641 5640 5638 5638 5637 5637 5636 5635 5635 5634 5635 5634 5633 5634 5632 5624 5623
5805 5799 5793 5790 5784 5777 5772 5766 5761 5754 5749 5743 5738 5731 5725 5720 5715 5708 5701 5694 5685 5676 5668 5661 5650 5643 5637 5633 5630 5630 5629 5627 5627 5628 5627 5628 5626 5625 5625 5625 5625 5625 5623 5622 5623 5615 5613
5802 5796 5789 5784 5780 5775 5770 5764 5757 5751 5744 5739 5733 5727 5722 5715 5709 5701 5694 5686 5677 5668 5659 5649 5637 5631 5627 5622 5619 5617 5617 5618 5617 5617 5617 5619 5616 5615 5616 5614 5613 5616 5611 5611 5610 5605 5603
5799 5793 5786 5781 5776 5772 5768 5762 5755 5748 5740 5734 5729 5723 5716 5708 5702 5695 5687 5677 5668 5658 5644 5635 5624 5620 5617 5615 5612 5608 5607 5606 5606 5606 5609 5609 5607 5607 5606 5604 5602 5604 5601 5599 5599 5596 5593
5797 5791 5785 5779 5773 5769 5763 5757 5750 5743 5737 5731 5724 5717 5710 5703 5696 5688 5679 5669 5659 5647 5632 5620 5614 5610 5606 5604 5603 5602 5599 5598 5597 5597 5597 5597 5597 5597 5596 5594 5594 5593 5592 5590 5589 5586 5584
5795 5789 5782 5775 5769 5764 5759 5753 5746 5739 5732 5726 5718 5711 5703 5695 5688 5679 5669 5660 5650 5636 5621 5607 5603 5599 5597 5594 5593 5591 5591 5591 5589 5589 5588 5588 5587 5587 5586 5585 5584 5582 5581 5579 5579 5576 5575
5792 5785 5779 5774 5767 5760 5754 5748 5741 5734 5728 5721 5713 5703 5696 5688 5679 5670 5660 5649 5637 5625 5609 5596 5591 5588 5585 5584 5583 5582 5581 5582 5581 5580 5579 5579 5581 5577 5576 5574 5573 5573 5572 5569 5564 5563 5562
5788 5782 5776 5769 5761 5755 5749 5743 5737 5730 5723 5715 5706 5696 5688 5678 5669 5660 5650 5638 5626 5611 5596 5586 5582 5577 5575 5573 5572 5570 5570 5571 5572 5571 5571 5568 5570 5567 5566 5564 5562 5562 5562 5560 5555 5556 5550
5785 5779 5773 5766 5758 5750 5744 5738 5731 5724 5716 5710 5702 5691 5679 5670 5660 5650 5639 5626 5611 5598 5584 5574 5570 5568 5564 5563 5561 5559 5559 5561 5561 5561 5558 5557 5557 5557 5557 5555 5552 5551 5550 5552 5548 5544 5540
5781 5775 5769 5761 5754 5747 5738 5732 5725 5718 5711 5705 5695 5684 5673 5662 5652 5641 5631 5617 5603 5587 5575 5567 5563 5558 5556 5553 5552 5551 5550 5549 5549 5550 5549 5547 5547 5548 5546 5546 5545 5543 5539 5537 5539 5537 5531
5776 5771 5764 5756 5750 5742 5734 5728 5719 5712 5705 5697 5688 5678 5665 5654 5643 5632 5622 5608 5594 5581 5569 5561 5556 5552 5549 5545 5543 5541 5541 5541 5540 5539 5539 5537 5536 5538 5537 5534 5534 5534 5533 5530 5528 5528 5525
5771 5767 5760 5752 5745 5737 5729 5722 5715 5706 5697 5689 5682 5672 5660 5645 5634 5624 5612 5597 5581 5571 5562 5557 5551 5546 5542 5540 5533 5532 5531 5531 5530 5530 5527 5527 5526 5527 5527 5527 5524 5524 5525 5522 5520 5518 5518
5767 5761 5755 5746 5739 5732 5725 5717 5709 5700 5690 5682 5673 5663 5652 5637 5623 5613 5602 5590 5575 5563 5556 5550 5545 5540 5536 5533 5528 5524 5522 5520 5520 5518 5517 5515 5515 5516 5516 5515 5514 5515 5515 5513 5510 5510 5507
5761 5756 5749 5741 5734 5727 5718 5711 5702 5692 5684 5675 5666 5655 5644 5629 5615 5603 5590 5577 5566 5558 5550 5542 5539 5533 5528 5525 5522 5516 5513 5509 5510 5507 5506 5504 5504 5505 5506 5505 5504 5502 5504 5504 5503 5499 5496
5756 5750 5744 5736 5729 5722 5713 5704 5695 5686 5677 5668 5658 5648 5638 5622 5609 5597 5582 5571 5559 5549 5541 5536 5530 5527 5522 5516 5510 5508 5502 5500 5498 5498 5495 5495 5494 5493 5495 5496 5494 5494 5494 5492 5492 5490 5489
5751 5745 5739 5731 5723 5715 5707 5699 5689 5680 5670 5660 5651 5642 5630 5617 5603 5590 5576 5561 5550 5541 5536 5527 5521 5518 5513 5508 5503 5499 5494 5492 5489 5486 5486 5484 5483 5482 5483 5484 5484 5485 5485 5484 5483 5482 5480
5745 5740 5733 5726 5718 5710 5702 5693 5684 5676 5665 5653 5643 5634 5624 5611 5596 5582 5568 5554 5541 5532 5525 5519 5512 5506 5503 5498 5495 5491 5486 5483 5481 5479 5476 5475 5475 5473 5474 5473 5475 5476 5476 5475 5475 5474 5474
5740 5734 5727 5720 5712 5704 5696 5687 5677 5668 5659 5646 5637 5628 5617 5605 5589 5576 5561 5549 5535 5523 5514 5507 5502 5497 5492 5488 5485 5483 5480 5476 5473 5471 5469 5468 5467 5466 5465 5466 5468 5467 5468 5467 5466 5468 5466
5734 5727 5720 5714 5706 5698 5690 5681 5671 5660 5652 5640 5630 5622 5612 5599 5584 5570 5556 5542 5531 5520 5512 5501 5494 5487 5482 5477 5473 5470 5469 5466 5465 5464 5463 5462 5460 5460 5459 5459 5459 5460 5460 5459 5460 5460 5458
5727 5721 5714 5707 5699 5692 5684 5674 5663 5652 5643 5634 5623 5613 5604 5592 5576 5562 5548 5534 5521 5510 5502 5493 5488 5481 5475 5468 5465 5462 5460 5458 5456 5455 5455 5454 5454 5453 5452 5452 5452 5453 5452 5451 5453 5455 5451
5720 5713 5706 5699 5691 5684 5676 5667 5656 5646 5637 5629 5616 5606 5597 5585 5567 5554 5538 5525 5512 5501 5492 5485 5479 5472 5467 5462 5458 5454 5452 5451 5449 5449 5448 5448 5447 5446 5447 5446 5448 5447 5445 5446 5445 5444 5444
5711 5705 5698 5691 5684 5677 5669 5660 5649 5639 5630 5621 5612 5601 5589 5576 5559 5544 5529 5518 5506 5496 5487 5479 5472 5466 5459 5454 5451 5447 5444 5442 5441 5442 5441 5441 5441 5441 5441 5441 5439 5438 5438 5437 5437 5437 5436